Tracking 27380 objects as of 6-Jun-2023
HD Live streaming from Space Station
objects crossing your sky now

STARLINK-2187

Track STARLINK-2187 now!
10-day predictions
STARLINK-2187 is classified as:


NORAD ID: 48562
Int'l Code: 2021-041K
Perigee: 553.0 km
Apogee: 555.7 km
Inclination: 53.1 °
Period: 95.6 minutes
Semi major axis: 6925 km
RCS: Unknown
Launch date: May 15, 2021
Source: United States (US)
Launch site: AIR FORCE EASTERN TEST RANGE (AFETR)
Your satellite tracking list
Your tracking list is empty




NASA's NSSDC Master Catalog

Two Line Element Set (TLE):
1 48562U 21041K   23157.66903232  .00010545  00000-0  72595-3 0  9998
2 48562  53.0537 332.3124 0001918  80.6318 279.4888 15.06391513113828
Source of the keplerian elements: AFSPC